This is the latest recevied weather packets stored in our database for station/object DO1TOB-60. If no packets are shown the sender has not sent any weather packets the latest 1 day(s).
| Time | Temp. | Humidity | Pressure | Rain* | Wind** | Luminosity | Snow |
|---|---|---|---|---|---|---|---|
| 1778010502 | 11.11° C | 97% | 1007.7 hPa | 0.51 mm | 0.45 m/s, 44° | - | - |
| 1778010262 | 11.11° C | 96% | 1007.7 hPa | 0.51 mm | 1.34 m/s, 55° | - | - |
| 1778010203 | 11.11° C | 96% | 1007.7 hPa | 0.76 mm | 0.89 m/s, 53° | - | - |
| 1778010021 | 11.67° C | 97% | 1007.7 hPa | 0.76 mm | 0.45 m/s, 316° | - | - |
| 1778009902 | 11.67° C | 97% | 1007.7 hPa | 0.76 mm | 1.79 m/s, 49° | - | - |
| 1778009842 | 11.67° C | 97% | 1007.7 hPa | 0.76 mm | 0.89 m/s, 63° | - | - |
| 1778009782 | 11.67° C | 97% | 1007.7 hPa | 0.76 mm | 0.89 m/s, 48° | - | - |
| 1778009543 | 11.67° C | 97% | 1007.7 hPa | 0.76 mm | 0.89 m/s, 36° | - | - |
| 1778009482 | 11.67° C | 97% | 1007.8 hPa | 0.76 mm | 0.45 m/s, 12° | - | - |
| 1778009241 | 11.67° C | 96% | 1007.7 hPa | 0.76 mm | 0.89 m/s, 45° | - | - |
| 1778009122 | 11.67° C | 96% | 1007.7 hPa | 0.76 mm | 0.89 m/s, 35° | - | - |
| 1778009002 | 11.67° C | 96% | 1007.7 hPa | 0.76 mm | 0.45 m/s, 46° | - | - |
| 1778008162 | 11.67° C | 96% | 1007.7 hPa | 0.51 mm | 0.45 m/s, 40° | - | - |
| 1778008042 | 11.67° C | 96% | 1007.7 hPa | 0.51 mm | 1.34 m/s, 37° | - | - |
| 1778007982 | 11.67° C | 96% | 1007.7 hPa | 0.51 mm | 0.45 m/s, 46° | - | - |
| 1778007802 | 11.67° C | 96% | 1007.7 hPa | 0.51 mm | 0.89 m/s, 29° | - | - |
| 1778007741 | 11.67° C | 96% | 1007.7 hPa | 0.51 mm | 0.89 m/s, 8° | - | - |
| 1778006903 | 11.67° C | 96% | 1007.7 hPa | 0.25 mm | 0.45 m/s, 33° | - | - |
| 1778006542 | 11.67° C | 96% | 1007.7 hPa | 0 mm | 1.34 m/s, 40° | - | - |
| 1778006421 | 11.67° C | 96% | 1007.7 hPa | 0 mm | 0.45 m/s, 42° | - | - |
| 1778006302 | 11.67° C | 96% | 1007.7 hPa | 0.25 mm | 0.45 m/s, 39° | - | - |
| 1778005401 | 12.22° C | 95% | 1007.7 hPa | 0.25 mm | 0.45 m/s, 342° | - | - |
| 1778005221 | 12.22° C | 95% | 1007.7 hPa | 0.25 mm | 1.34 m/s, 339° | - | - |
| 1778005162 | 12.22° C | 95% | 1007.7 hPa | 0.25 mm | 0.89 m/s, 331° | - | - |
| 1778005102 | 12.22° C | 95% | 1007.7 hPa | 0.25 mm | 0.89 m/s, 331° | - | - |
* Rain latest hour (hover to see other rain measurements)
** Current wind speed in m/s (hover to see current wind gust speed)